Location: Ayer Observatory
(42.2600°N, 71.0700°W)
Time: 14:27:19
(UTC-04:00)

FO-29 - Pass Details

Date: 31 August 2019
Orbit: 801 x 1321 km, 98.6° (Epoch: 14 October)

Event Time Altitude Azimuth Distance (km) Brightness Sun altitude
Exits shadow 02:45:18 41° 82° (E) 1,148 10.1 -32.1°
Maximum altitude 02:45:43 42° 69° (ENE) 1,134 10.1 -32.0°
Drops below altitude 10° 02:50:36 10° 0° (N) 2,400 12.1 -31.5°
Sets 02:53:03 0° 354° (N) 3,360 12.9 -31.2°
